Location: B?ogocice
(50.2413°N, 20.2361°E)
Time: 03:34:52
(UTC+00:00)

ALOS - Pass Details

Date: 24 September 2024
Orbit: 670 x 673 km, 98.0° (Epoch: 04 October)

Event Time Altitude Azimuth Distance (km) Brightness Sun altitude
Rises 03:09:58 0° 1° (N) 3,031 5.8 -13.3°
Reaches altitude 10° 03:13:02 10° 339° (NNW) 2,111 4.7 -12.8°
Maximum altitude 03:15:40 15° 304° (NW) 1,774 4.0 -12.4°
Enters shadow 03:16:57 14° 285° (WNW) 1,858 4.0 -12.2°
